Miscellaneous Local Product
Issued by NWS North Platte, NE

Home | Current Version | Previous Version | Graphics & Text | Print | Product List | Glossary On
Versions: 1 2 3 4 5 6 7 8 9 10 11 12 13 14 15 16 17 18 19 20 21 22 23 24 25 26 27 28 29 30 31 32 33 34 35 36 37 38 39 40 41 42 43 44 45 46 47 48 49 50
559
AXUS43 KLBF 200810
MISLBF


WESTERN AND NORTH CENTRAL NEBRASKA HOURLY WEATHER ROUNDUP
NATIONAL WEATHER SERVICE NORTH PLATTE NE
300 AM CDT WED SEP 20 2017

NOTE: "FAIR" INDICATES FEW OR NO CLOUDS BELOW 12,000 FEET WITH NO
SIGNIFICANT WEATHER AND/OR OBSTRUCTIONS TO VISIBILITY.

NOTE: STATIONS NOT REPORTING VARIABLES SUCH AS SKY/WEATHER OR
PRESSURE ARE PROVIDED BY RAWS AND APRS NETWORKS AND ARE NOT UNDER
NATIONAL WEATHER SERVICE QUALITY CONTROL.

...OBSERVATIONS IN AND NEAR THE EASTERN PANHANDLE OF NEBRASKA...

CITY           SKY/WX    TMP DP  RH WIND       PRES   REMARKS
GORDON         FAIR      53  37  55 W14       29.79R
CHADRON        PTCLDY    45  33  63 SW9       29.82R
ALLIANCE       CLOUDY    53  33  46 W22       29.82R
SIDNEY         CLOUDY    52  31  44 NW14      29.86S
CRESCENT LAKE    N/A     53  35  51 NW7         N/A
$$

...OBSERVATIONS IN NORTHERN NEBRASKA AND FAR SOUTHERN SOUTH DAKOTA...

CITY           SKY/WX    TMP DP  RH WIND       PRES   REMARKS
WINNER         FAIR      52  47  83 W6        29.76R
VALENTINE      CLOUDY    52  47  83 CALM      29.77R
THEDFORD       CLEAR     47  42  82 CALM      29.80R
AINSWORTH      CLEAR     50  48  93 CALM      29.80R
O`NEILL        PTCLDY    56  49  76 NW9       29.77R
ORD            CLEAR     54  47  77 NW6       29.75R
BROKEN BOW     PTCLDY    57  44  62 NW7       29.78R
VALENTINE NWR    N/A     51  45  80 CALM        N/A
HALSEY           N/A     53  42  65 CALM        N/A
BUTTE            N/A     55  48  78 CALM        N/A
CHAMBERS         N/A     58  47  68 NE3         N/A
EWING            N/A     59  52  77 CALM        N/A
$$

...OBSERVATIONS IN SOUTHWEST NEBRASKA AND FAR NORTHEAST COLORADO...

CITY           SKY/WX    TMP DP  RH WIND       PRES   REMARKS
WRAY           FAIR      45  32  61 W6        29.88R
IMPERIAL       CLEAR     50  33  52 NW7       29.86R
OGALLALA       CLEAR     50  34  53 NW5       29.85R
NORTH PLATTE   CLOUDY    46  41  82 NW7       29.82R
MCCOOK         CLEAR     52  36  54 W8        29.82R
LEXINGTON      PTCLDY    51  45  80 NW5       29.79R
STAPLETON        N/A     48  41  77 CALM        N/A
GOTHENBURG       N/A     55  40  56 NW3         N/A
CALLAWAY         N/A     51  45  80 NW5         N/A
$$

...OBSERVATIONS IN CENTRAL LINCOLN COUNTY AREA...

CITY           SKY/WX    TMP DP  RH WIND       PRES   REMARKS
N.P. AIRPORT   CLOUDY    46  41  82 NW7       29.82R
N.P. DOWNTOWN    N/A     52  40  64 CALM        N/A
N.P. SOUTHEAST   N/A     52  39  61 CALM        N/A
N.P. HILLCREST   N/A     50  41  70 NW6         N/A
$$

...SOME OBSERVATIONS FROM AROUND THE REGION...

CITY           SKY/WX    TMP DP  RH WIND       PRES   REMARKS
DENVER         CLOUDY    41  28  60 SE14      29.89S
LIMON          CLOUDY    43  32  65 N10       29.92R
ASPEN          CLOUDY    55  31  39 N8        29.98R
LARAMIE        CLOUDY    38  27  64 W8        30.01R WCI  32
CASPER         CLEAR     40  28  62 SW16      29.88R WCI  31
CHEYENNE       CLOUDY    44  29  55 W14G22    29.93R
SCOTTSBLUFF    CLOUDY    54  32  43 W10       29.87R
GRAND ISLAND   PTCLDY    60  51  72 N9        29.73R
OMAHA          MOCLDY    77  69  76 S7        29.63R
SIOUX FALLS    CLOUDY    60  60 100 CALM      29.66R
PIERRE         MOCLDY    53  45  74 NW12      29.69R
BISMARCK       CLEAR     49  44  83 W13       29.63R
KANSAS CITY    CLEAR     76  69  79 S15       29.71F
HILL CITY      CLEAR     58  40  51 NW7       29.79R
WICHITA        CLOUDY    77  70  79 S16       29.71S
DODGE CITY     CLEAR     64  41  42 N12       29.76R
OKLAHOMA CITY  PTCLDY    73  60  63 S10       29.79R
DALLAS         MOCLDY    83  72  69 S20       29.82S
AMARILLO       CLEAR     65  47  52 SW9       29.82R
$$




USA.gov is the U.S. government's official web portal to all federal, state and local government web resources and services.